• In Uzbekistan
  • List of Countries
  • For 7 days
  • Water Temperature
  • Satellite Maps
  • Weather Map
  • Weather Widgets
  • user-avatar
    Login

    Hourly Weather Manaus

    Today, 20 October, Friday

    Time Temperature Precipitation Wind Pressure Humidity
    00:00 +27°C° 0 mm 0 mps 752 mmHg 70%
    01:00 +26°C° 0 mm 0 mps 752 mmHg 72%
    02:00 +26°C° 0 mm 0 mps 752 mmHg 74%
    03:00 +25°C° 0.3 mm 0 mps 752 mmHg 78%
    04:00 +25°C° 0.3 mm 0 mps 752 mmHg 81%
    05:00 +26°C° 0.3 mm 1 mps 752 mmHg 85%
    06:00 +27°C° 0.5 mm 1 mps 753 mmHg 82%
    07:00 +28°C° 0.5 mm 1 mps 753 mmHg 80%
    08:00 +29°C° 0.5 mm 2 mps 754 mmHg 78%
    09:00 +30°C° 1.2 mm 2 mps 754 mmHg 74%
    10:00 +31°C° 1.2 mm 3 mps 754 mmHg 71%
    11:00 +33°C° 1.2 mm 3 mps 755 mmHg 67%
    12:00 +35°C° 0.4 mm 3 mps 754 mmHg 59%
    13:00 +36°C° 0.4 mm 3 mps 753 mmHg 51%
    14:00 +38°C° 0.4 mm 2 mps 752 mmHg 42%
    15:00 +37°C° 0 mm 2 mps 751 mmHg 44%
    16:00 +36°C° 0 mm 1 mps 751 mmHg 46%
    17:00 +35°C° 0 mm 1 mps 750 mmHg 48%
    18:00 +33°C° 0.1 mm 1 mps 751 mmHg 55%
    19:00 +31°C° 0.1 mm 1 mps 751 mmHg 61%
    20:00 +29°C° 0.1 mm 1 mps 752 mmHg 67%
    21:00 +28°C° 0.3 mm 1 mps 752 mmHg 70%
    22:00 +28°C° 0.3 mm 1 mps 752 mmHg 73%
    23:00 +27°C° 0.3 mm 1 mps 752 mmHg 76%

    Tomorrow, 21 October, Saturday

    Time Temperature Precipitation Wind Pressure Humidity
    00:00 +27°C° 0 mm 1 mps 752 mmHg 77%
    01:00 +25°C° 0 mm 0 mps 751 mmHg 78%
    02:00 +25°C° 0 mm 0 mps 751 mmHg 79%
    03:00 +24°C° 0 mm 0 mps 751 mmHg 80%
    04:00 +26°C° 0 mm 1 mps 751 mmHg 82%
    05:00 +26°C° 0 mm 1 mps 751 mmHg 83%
    06:00 +28°C° 0 mm 1 mps 752 mmHg 77%
    07:00 +29°C° 0 mm 2 mps 753 mmHg 71%
    08:00 +31°C° 0 mm 2 mps 754 mmHg 64%
    09:00 +34°C° 0 mm 2 mps 754 mmHg 57%
    10:00 +36°C° 0 mm 3 mps 754 mmHg 49%
    11:00 +38°C° 0 mm 3 mps 754 mmHg 41%
    12:00 +39°C° 0 mm 3 mps 753 mmHg 38%
    13:00 +39°C° 0 mm 2 mps 752 mmHg 35%
    14:00 +40°C° 0 mm 2 mps 750 mmHg 32%
    15:00 +39°C° 0 mm 2 mps 750 mmHg 36%
    16:00 +37°C° 0 mm 1 mps 750 mmHg 40%
    17:00 +36°C° 0 mm 1 mps 750 mmHg 44%
    18:00 +35°C° 0 mm 1 mps 751 mmHg 47%
    19:00 +33°C° 0 mm 1 mps 752 mmHg 49%
    20:00 +32°C° 0 mm 1 mps 752 mmHg 52%
    21:00 +32°C° 0 mm 1 mps 753 mmHg 53%
    22:00 +31°C° 0 mm 1 mps 753 mmHg 54%
    23:00 +31°C° 0 mm 1 mps 753 mmHg 54%

    Day after tomorrow, 22 October, Sunday

    Time Temperature Precipitation Wind Pressure Humidity
    00:00 +30°C° 0 mm 1 mps 753 mmHg 56%
    01:00 +30°C° 0 mm 1 mps 752 mmHg 58%
    02:00 +29°C° 0 mm 2 mps 752 mmHg 60%
    03:00 +29°C° 0 mm 2 mps 752 mmHg 62%
    04:00 +29°C° 0 mm 2 mps 752 mmHg 65%
    05:00 +28°C° 0 mm 2 mps 753 mmHg 67%
    06:00 +30°C° 0 mm 2 mps 753 mmHg 63%
    07:00 +31°C° 0 mm 3 mps 754 mmHg 58%
    08:00 +34°C° 0 mm 3 mps 755 mmHg 54%
    09:00 +36°C° 0 mm 3 mps 754 mmHg 47%
    10:00 +38°C° 0 mm 3 mps 754 mmHg 40%
    11:00 +40°C° 0 mm 3 mps 754 mmHg 33%
    12:00 +40°C° 0 mm 3 mps 753 mmHg 30%
    13:00 +42°C° 0 mm 3 mps 752 mmHg 28%
    14:00 +43°C° 0 mm 3 mps 751 mmHg 25%
    15:00 +41°C° 0 mm 2 mps 751 mmHg 28%
    16:00 +40°C° 0 mm 2 mps 750 mmHg 31%
    17:00 +39°C° 0 mm 1 mps 750 mmHg 34%
    18:00 +36°C° 0 mm 1 mps 751 mmHg 37%
    19:00 +35°C° 0 mm 1 mps 751 mmHg 40%
    20:00 +34°C° 0 mm 1 mps 752 mmHg 43%
    21:00 +33°C° 0 mm 1 mps 752 mmHg 46%
    22:00 +32°C° 0 mm 1 mps 752 mmHg 49%
    23:00 +31°C° 0 mm 1 mps 752 mmHg 53%

    23 October, Monday

    Time Temperature Precipitation Wind Pressure Humidity
    00:00 +30°C° 0 mm 1 mps 752 mmHg 55%
    01:00 +30°C° 0 mm 1 mps 751 mmHg 57%
    02:00 +30°C° 0 mm 1 mps 751 mmHg 59%
    03:00 +29°C° 0 mm 1 mps 751 mmHg 61%
    04:00 +29°C° 0 mm 1 mps 752 mmHg 63%
    05:00 +28°C° 0 mm 1 mps 752 mmHg 65%
    06:00 +30°C° 0 mm 2 mps 753 mmHg 61%
    07:00 +32°C° 0 mm 2 mps 753 mmHg 56%
    08:00 +34°C° 0 mm 3 mps 754 mmHg 51%
    09:00 +36°C° 0 mm 3 mps 754 mmHg 45%
    10:00 +38°C° 0 mm 3 mps 753 mmHg 40%
    11:00 +40°C° 0 mm 2 mps 753 mmHg 34%
    12:00 +40°C° 0 mm 2 mps 752 mmHg 33%
    13:00 +40°C° 0 mm 2 mps 751 mmHg 33%
    14:00 +40°C° 0 mm 1 mps 750 mmHg 32%
    15:00 +37°C° 0 mm 1 mps 750 mmHg 36%
    16:00 +36°C° 0 mm 1 mps 750 mmHg 40%
    17:00 +35°C° 0 mm 1 mps 749 mmHg 45%
    18:00 +32°C° 0 mm 0 mps 750 mmHg 46%
    19:00 +31°C° 0 mm 0 mps 751 mmHg 48%
    20:00 +31°C° 0 mm 0 mps 751 mmHg 50%
    21:00 +30°C° 0 mm 0 mps 751 mmHg 51%
    22:00 +30°C° 0 mm 0 mps 751 mmHg 53%
    23:00 +29°C° 0 mm 0 mps 752 mmHg 54%

    24 October, Tuesday

    Time Temperature Precipitation Wind Pressure Humidity
    00:00 +31°C° 0.1 mm 1 mps 751 mmHg 58%
    01:00 +30°C° 0.1 mm 1 mps 751 mmHg 61%
    02:00 +29°C° 0.1 mm 1 mps 751 mmHg 65%
    03:00 +29°C° 0.1 mm 1 mps 751 mmHg 69%
    04:00 +28°C° 0.1 mm 1 mps 752 mmHg 73%
    05:00 +28°C° 0.1 mm 1 mps 752 mmHg 77%
    06:00 +29°C° 0.7 mm 1 mps 753 mmHg 75%
    07:00 +30°C° 0.7 mm 1 mps 753 mmHg 74%
    08:00 +31°C° 0.7 mm 1 mps 754 mmHg 72%
    09:00 +32°C° 0.8 mm 1 mps 754 mmHg 67%
    10:00 +33°C° 0.8 mm 1 mps 754 mmHg 62%
    11:00 +35°C° 0.8 mm 1 mps 753 mmHg 57%
    12:00 +35°C° 0.3 mm 1 mps 753 mmHg 55%
    13:00 +35°C° 0.3 mm 1 mps 752 mmHg 53%
    14:00 +33°C° 0.3 mm 0 mps 751 mmHg 51%
    15:00 +34°C° 0 mm 1 mps 751 mmHg 54%
    16:00 +34°C° 0 mm 1 mps 751 mmHg 57%
    17:00 +33°C° 0 mm 1 mps 751 mmHg 60%
    18:00 +32°C° 0 mm 1 mps 751 mmHg 64%
    19:00 +31°C° 0 mm 1 mps 752 mmHg 68%
    20:00 +30°C° 0 mm 1 mps 752 mmHg 72%
    21:00 +29°C° 0 mm 1 mps 752 mmHg 75%
    22:00 +29°C° 0 mm 1 mps 752 mmHg 77%
    23:00 +28°C° 0 mm 1 mps 752 mmHg 80%

    25 October, Wednesday

    Time Temperature Precipitation Wind Pressure Humidity
    00:00 +28°C° 0 mm 1 mps 752 mmHg 81%
    01:00 +28°C° 0 mm 1 mps 752 mmHg 82%
    02:00 +28°C° 0 mm 1 mps 751 mmHg 83%
    03:00 +28°C° 0 mm 1 mps 751 mmHg 84%
    04:00 +27°C° 0 mm 1 mps 752 mmHg 85%
    05:00 +27°C° 0 mm 1 mps 752 mmHg 86%
    06:00 +28°C° 0.2 mm 1 mps 753 mmHg 83%
    07:00 +29°C° 0.2 mm 1 mps 753 mmHg 79%
    08:00 +30°C° 0.2 mm 1 mps 754 mmHg 76%
    09:00 +31°C° 0.9 mm 1 mps 754 mmHg 73%
    10:00 +32°C° 0.9 mm 1 mps 754 mmHg 71%
    11:00 +33°C° 0.9 mm 1 mps 753 mmHg 68%
    12:00 +34°C° 1.1 mm 1 mps 753 mmHg 64%
    13:00 +34°C° 1.1 mm 1 mps 752 mmHg 60%
    14:00 +35°C° 1.1 mm 1 mps 751 mmHg 56%
    15:00 +34°C° 0.1 mm 1 mps 751 mmHg 58%
    16:00 +34°C° 0.1 mm 1 mps 751 mmHg 60%
    17:00 +33°C° 0.1 mm 1 mps 751 mmHg 62%
    18:00 +32°C° 0 mm 1 mps 751 mmHg 67%
    19:00 +30°C° 0 mm 1 mps 752 mmHg 73%
    20:00 +29°C° 0 mm 1 mps 752 mmHg 78%
    21:00 +29°C° 0 mm 1 mps 752 mmHg 79%
    22:00 +28°C° 0 mm 1 mps 752 mmHg 81%
    23:00 +28°C° 0 mm 1 mps 752 mmHg 82%
    Show more